CLUSTER II-FM8 (TANGO)

Last updated on Sun Jun 21 2026 00:03:39 GMT+0000 (Coordinated Universal Time)

1 26464U 00045B 26170.68964110 .00004777 00000+0 00000+0 0 9995 2 26464 150.1455 52.4796 9063456 269.5212 2.6313 0.44407361 20329
UTC large
Height (km)
Speed (km/s)
/
Latitude / Longitude
Inclination (degrees)
Orbital Period (minutes)
Azimuth
Elevation
Range (km)
Doppler Factor

Next 0 passes for location: London (51.5072 / 0.1276)

No passes found over London.
CLUSTER II-FM8 (TANGO)